Portada
METAR-TAF:

METAR-TAF

Aeroports :

Ghadames, Líbia

latitud: 30-08N, longitud: 009-30E, altitud: 346 m

METAR: manca

Hora: 12:52 (10:52 UTC)

Pronòstic

L'informe es va fer fa 5 hores i 52 minuts, a les 05:00 UTC
Pronòstic vàlid del 17 a les 06 UTC al 17 a les 15 UTC
Vent 2 kt amb direcció variable
Visibilitat 10 km o més
sense núvols per sota de 1500 mi sense presència de cumulonimbus.
Evolucionant progressivament
l' 17 a les 08 UTC al 17 a les 10 UTC
Vent 10 kt del Sud

TAF: HLTD 170500Z 1706/1715 VRB02KT CAVOK BECMG 1708/1710 18010KT

Observacions i pronòstics meteorològics de més de 4000 aeroports (METAR i TAF).

Les estacions disponibles són els punts grocs i vermells al mapa.

Posi el ratolí al punt desitjat per veure el nom de l'estació.

Feu clic per veure les observacions i els pronòstics meteorològics.

Per canviar el mapa: feu clic els botons verds amb una creu de color negre per apropar; al botó verd amb un guió per allunyar la imatge; o en les fletxes verdes per a mapes adjacents.


METAR-TAF: